Location: Hurstbourne Priors
(51.2000°N, 1.3667°W)
Time: 01:19:03
(UTC+00:00)

ATLAS 5 CENTAUR R/B - Pass Details

Date: 09 April 2020
Orbit: 543 x 1116 km, 63.4° (Epoch: 01 May)

Event Time Altitude Azimuth Distance (km) Brightness Sun altitude
Rises 19:58:32 0° 213° (SSW) 2,736 5.0 -10.5°
Reaches altitude 10° 20:00:39 10° 211° (SSW) 1,880 4.1 -10.8°
Maximum altitude 20:04:48 66° 129° (SE) 680 1.5 -11.4°
Drops below altitude 10° 20:09:32 10° 48° (NE) 2,140 4.1 -12.0°
Sets 20:12:05 0° 46° (NE) 3,154 5.0 -12.4°
